Weather History for KARB - March, 2013

Change the Weather History Date:

Thursday, March 7, 2013

  Actual Average Record
Temperature  
Mean Temperature 32 °F -  
Max Temperature 36 °F 35 °F 64 °F (2012)
Min Temperature 23 °F 19 °F 3 °F (2003)
Degree Days  
Heating Degree Days 33    
Moisture  
Dew Point 25 °F    
Average Humidity 74    
Maximum Humidity 89    
Minimum Humidity 59    
Precipitation  
Precipitation 0.00 in - - ()
Sea Level Pressure  
Sea Level Pressure 30.32 in    
Wind  
Wind Speed 5 mph (NNW)    
Max Wind Speed 12 mph    
Max Gust Speed -    
Visibility 9 miles    
Events      
Averages and records for this station are not official NWS values.
T = Trace of Precipitation, MM = Missing Value Source: NWS Daily Summary

Daily Weather History Graph

Daily Weather History Graph

Search for Another Location

Airport or City:

Trip Planner

Search our weather history database for the weather conditions in past years. The results will help you decide how hot, cold, wet, or windy it might be!

Date:

Astronomy

Mar. 07, 2013 Rise Set
Actual Time 6:59 AM EST 6:32 PM EST
Civil Twilight 6:32 AM EST 7:00 PM EST
Nautical Twilight 5:59 AM EST 7:32 PM EST
Astronomical Twilight 5:27 AM EST 8:05 PM EST
Moon 4:03 AM EST (3/7) 2:15 PM EST (3/7)
Length of Visible Light 12h 28m
Length of Day
11h 32m
Waning Crescent, 20% of the Moon is Illuminated
Mar 7
Waning Crescent
Mar 11
New
Mar 19
First Quarter
Mar 27
Full
Apr 3
Last Quarter

Hourly Weather History & Observations

Time (EST) Temp. Windchill Dew Point Humidity Pressure Visibility Wind Dir Wind Speed Gust Speed Precip Events Conditions
12:53 AM 33.1 °F - 28.0 °F 82% 30.22 in 9.0 mi Calm Calm - N/A   Overcast
1:53 AM 32.0 °F - 28.0 °F 85% 30.22 in 10.0 mi Calm Calm - N/A   Overcast
2:53 AM 32.0 °F 28.7 °F 28.0 °F 85% 30.22 in 9.0 mi WNW 3.5 mph - N/A   Overcast
3:53 AM 30.9 °F 26.2 °F 28.0 °F 89% 30.23 in 9.0 mi WNW 4.6 mph - N/A   Overcast
4:53 AM 32.0 °F 27.5 °F 28.0 °F 85% 30.24 in 9.0 mi WNW 4.6 mph - N/A   Overcast
5:53 AM 33.1 °F 28.7 °F 28.0 °F 82% 30.26 in 8.0 mi NW 4.6 mph - N/A   Overcast
6:53 AM 33.1 °F 27.7 °F 28.0 °F 82% 30.27 in 9.0 mi NW 5.8 mph - N/A   Overcast
7:53 AM 32.0 °F 26.4 °F 28.0 °F 85% 30.28 in 8.0 mi NW 5.8 mph - N/A   Mostly Cloudy
8:37 AM 33.8 °F 25.8 °F 28.4 °F 81% 30.28 in 8.0 mi NNW 10.4 mph - N/A   Overcast
8:53 AM 34.0 °F 26.6 °F 28.9 °F 82% 30.31 in 7.0 mi NNW 9.2 mph - N/A   Overcast
9:23 AM 33.8 °F 27.0 °F 28.4 °F 81% 30.29 in 7.0 mi NNW 8.1 mph - N/A   Overcast
9:42 AM 33.8 °F 25.8 °F 28.4 °F 81% 30.30 in 8.0 mi NNW 10.4 mph - N/A   Overcast
9:53 AM 34.0 °F 25.5 °F 28.9 °F 82% 30.32 in 9.0 mi NNW 11.5 mph - N/A   Overcast
10:43 AM 35.6 °F 28.6 °F 28.4 °F 75% 30.30 in 10.0 mi NNW 9.2 mph - N/A   Overcast
10:53 AM 36.0 °F 28.5 °F 28.9 °F 76% 30.33 in 10.0 mi North 10.4 mph - N/A   Overcast
11:53 AM 36.0 °F 29.6 °F 28.0 °F 73% 30.34 in 10.0 mi North 8.1 mph - N/A   Overcast
1:04 PM 35.6 °F 28.0 °F 26.6 °F 70% 30.31 in 10.0 mi NNW 10.4 mph - N/A   Overcast
1:53 PM 36.0 °F 29.0 °F 25.0 °F 64% 30.33 in 10.0 mi North 9.2 mph - N/A   Overcast
2:31 PM 35.6 °F 28.6 °F 24.8 °F 65% 30.31 in 10.0 mi NNW 9.2 mph - N/A   Overcast
2:53 PM 36.0 °F 29.6 °F 24.1 °F 62% 30.34 in 10.0 mi North 8.1 mph - N/A   Overcast
3:53 PM 36.0 °F 31.1 °F 23.0 °F 59% 30.35 in 10.0 mi North 5.8 mph - N/A   Overcast
4:53 PM 35.1 °F 28.6 °F 21.9 °F 59% 30.35 in 10.0 mi NNW 8.1 mph - N/A   Overcast
5:53 PM 34.0 °F 26.6 °F 21.9 °F 61% 30.37 in 10.0 mi North 9.2 mph - N/A   Overcast
6:53 PM 33.1 °F 25.5 °F 19.9 °F 59% 30.39 in 10.0 mi North 9.2 mph - N/A   Overcast
7:53 PM 32.0 °F 24.8 °F 19.0 °F 59% 30.41 in 10.0 mi NNE 8.1 mph - N/A   Mostly Cloudy
8:53 PM 30.9 °F 26.2 °F 19.9 °F 64% 30.41 in 10.0 mi NE 4.6 mph - N/A   Overcast
9:53 PM 30.9 °F 26.2 °F 18.0 °F 59% 30.41 in 10.0 mi NE 4.6 mph - N/A   Overcast
10:53 PM 28.9 °F - 18.0 °F 64% 30.41 in 10.0 mi Calm Calm - N/A   Partly Cloudy
11:53 PM 23.0 °F - 18.0 °F 81% 30.41 in 10.0 mi Calm Calm - N/A   Clear